[TLELIST] Archives

 

[TLELIST] Current TLEs

December 1st 2024 PDT

ISS (ZARYA) 1 25544U 98067A 24336.59759280 .00020297 00000-0 36103-3 0 9999 2 25544 51.6397 205.9875 0006915 289.9483 151.1375 15.50113255484516 CXO 1 25867U 99040B 24337.10248963 .00000640 00000-0 00000+0 0 9991 2 25867 44.9628 140.7483 8701992 304.6886 0.0128 0.37806732 26354 ...Continue Reading

[TLELIST] Current TLEs

November 30th 2024 PDT

HST 1 20580U 90037B 24335.37019268 .00016195 00000-0 69120-3 0 9990 2 20580 28.4700 308.9275 0002173 60.0317 300.0492 15.21446246702330 ISS (ZARYA) 1 25544U 98067A 24335.69021678 .00021425 00000-0 38106-3 0 9991 2 25544 51.6399 210.4846 0006637 285.8831 128.4022 15.50080478484370 CXO 1 25867U 99040B 24337.10248963 .00000640 00000-0 00000+0 0 9991 2 25867 44.9628 140.7483 8701992 304.6886 0.0128 0.37806732 26354 ...Continue Reading

[TLELIST] Current TLEs

November 28th 2024 PDT

HST 1 20580U 90037B 24333.33668895 .00014422 00000-0 61580-3 0 9993 2 20580 28.4699 322.6291 0002098 37.3738 322.7001 15.21386830702023 ISS (ZARYA) 1 25544U 98067A 24333.69862481 .00023720 00000-0 42205-3 0 9999 2 25544 51.6394 220.3545 0006791 276.8222 176.7845 15.50000833484068 CXO 1 25867U 99040B 24334.45791181 .00000576 00000-0 00000-0 0 9990 2 25867 44.9190 140.8890 8705655 304.6221 359.9348 0.37810679 15188 ...Continue Reading

[TLELIST] Current TLEs

November 27th 2024 PDT

HST 1 20580U 90037B 24331.43430947 .00014151 00000-0 60502-3 0 9999 2 20580 28.4700 335.4459 0001950 14.3475 345.7174 15.21335899701735 ISS (ZARYA) 1 25544U 98067A 24331.87655469 .00024111 00000-0 43016-3 0 9999 2 25544 51.6385 229.3849 0006823 271.5434 88.4773 15.49914286483788 CXO 1 25867U 99040B 24334.45791181 .00000576 00000-0 00000-0 0 9990 2 25867 44.9190 140.8890 8705655 304.6221 359.9348 0.37810679 15188 ...Continue Reading

[TLELIST] Current TLEs

November 27th 2024 PDT

HST 1 20580U 90037B 24331.43430947 .00014151 00000-0 60502-3 0 9999 2 20580 28.4700 335.4459 0001950 14.3475 345.7174 15.21335899701735 ISS (ZARYA) 1 25544U 98067A 24331.87655469 .00024111 00000-0 43016-3 0 9999 2 25544 51.6385 229.3849 0006823 271.5434 88.4773 15.49914286483788 CXO 1 25867U 99040B 24334.45791181 .00000576 00000-0 00000-0 0 9990 2 25867 44.9190 140.8890 8705655 304.6221 359.9348 0.37810679 15188 ...Continue Reading

[TLELIST] Current TLEs

November 27th 2024 PDT

HST 1 20580U 90037B 24331.43430947 .00014151 00000-0 60502-3 0 9999 2 20580 28.4700 335.4459 0001950 14.3475 345.7174 15.21335899701735 ISS (ZARYA) 1 25544U 98067A 24331.87655469 .00024111 00000-0 43016-3 0 9999 2 25544 51.6385 229.3849 0006823 271.5434 88.4773 15.49914286483788 CXO 1 25867U 99040B 24334.45791181 .00000576 00000-0 00000-0 0 9990 2 25867 44.9190 140.8890 8705655 304.6221 359.9348 0.37810679 15188 ...Continue Reading

[TLELIST] Current TLEs

November 26th 2024 PDT

HST 1 20580U 90037B 24330.45029548 .00013654 00000-0 58393-3 0 9993 2 20580 28.4701 342.0751 0001956 3.1043 356.9563 15.21309106701589 ISS (ZARYA) 1 25544U 98067A 24331.10282021 .00027503 00000-0 48999-3 0 9998 2 25544 51.6387 233.2172 0006803 269.0972 90.9237 15.49876734483665 CXO 1 25867U 99040B 24331.81436005 .00000537 00000-0 00000-0 0 9995 2 25867 44.8865 141.0157 8710623 304.5637 0.0224 0.37812761 15176 ...Continue Reading

[TLELIST] Current TLEs

November 26th 2024 PDT

HST 1 20580U 90037B 24330.45029548 .00013654 00000-0 58393-3 0 9993 2 20580 28.4701 342.0751 0001956 3.1043 356.9563 15.21309106701589 ISS (ZARYA) 1 25544U 98067A 24331.10282021 .00027503 00000-0 48999-3 0 9998 2 25544 51.6387 233.2172 0006803 269.0972 90.9237 15.49876734483665 CXO 1 25867U 99040B 24331.81436005 .00000537 00000-0 00000-0 0 9995 2 25867 44.8865 141.0157 8710623 304.5637 0.0224 0.37812761 15176 ...Continue Reading

[TLELIST] Current TLEs

November 26th 2024 PDT

HST 1 20580U 90037B 24330.45029548 .00013654 00000-0 58393-3 0 9993 2 20580 28.4701 342.0751 0001956 3.1043 356.9563 15.21309106701589 ISS (ZARYA) 1 25544U 98067A 24331.10282021 .00027503 00000-0 48999-3 0 9998 2 25544 51.6387 233.2172 0006803 269.0972 90.9237 15.49876734483665 CXO 1 25867U 99040B 24331.81436005 .00000537 00000-0 00000-0 0 9995 2 25867 44.8865 141.0157 8710623 304.5637 0.0224 0.37812761 15176 ...Continue Reading

[TLELIST] Current TLEs

November 25th 2024 PDT

HST 1 20580U 90037B 24329.46626437 .00012026 00000-0 51378-3 0 9990 2 20580 28.4702 348.7040 0001950 352.3012 7.7552 15.21283662701434 ISS (ZARYA) 1 25544U 98067A 24330.07117961 .00026376 00000-0 46825-3 0 9996 2 25544 51.6388 238.3275 0007609 264.6284 95.3837 15.49995637483500 CXO 1 25867U 99040B 24331.81436005 .00000537 00000-0 00000-0 0 9995 2 25867 44.8865 141.0157 8710623 304.5637 0.0224 0.37812761 15176 ...Continue Reading
  • This mailing list is a public mailing list - anyone may join or leave, at any time.
  • This mailing list is announce-only.

International Space Station (ISS) / Hubble Space Telescope (HST) / Chandra X-Ray Observatory Orbital Data via EMAIL

Privacy Policy:

Private list